Home > Weather > Woodstock > Past weeks

Flag for USA Past Weather in Woodstock, New York, USA — Yesterday and Last 2 Weeks

Now
72 °F

Thunderstorms. Mostly cloudy.


Feels Like: 70 °F
Forecast: 59 / 77 °F
Wind: No wind

Location: Dutchess County Airport

Current Time: Jul 1, 2016 at 8:23:51 PM

Latest Report: Jul 1, 2016 at 7:53 PM


Visibility: 10 mi

Pressure: 29.84 "Hg

Humidity: 87%

Dew Point: 68 °F

Location of WoodstockLocation

Past Weather in Woodstock — Graph

°F

Woodstock Temperature Yesterday

Maximum temperature yesterday: 84 °F (at 1:53 PM)
Minimum temperature yesterday: 59 °F (at 5:53 AM)
Average temperature yesterday: 73 °F

High & Low Weather Summary for the Past Weeks

 TemperatureHumidityPressure
High92 °F (Jun 20, 2:53 PM)90% (Jun 17, 4:53 AM)30.29 "Hg (Jun 17, 4:53 AM)
Low53 °F (Jun 18, 3:53 AM)21% (Jun 21, 1:53 PM)29.71 "Hg (Jun 16, 6:53 PM)
Average73 °F59%29.98 "Hg
* Reported Jun 16 6:53 PM — Jul 1 6:53 PM, Woodstock, Weather by CustomWeather, © 2016

Note: Actual official high and low records may vary slightly from our data, if they occured in-between our weather recording intervals... More about our weather records

Advertising

Woodstock Weather History for the Previous 24 Hours

Scroll right to see more
 ConditionsComfort  
Time TempWeatherWind HumidityBarometerVisibility
6:53 PM
Fri, Jul 1
72 °FThunderstorms. Passing clouds.3 mph84%29.84 "Hg10 mi
6:00 PM70 °FThunderstorms. Broken clouds.6 mph90%29.86 "Hg10 mi
4:53 PM70 °FLight rain. Mostly cloudy.3 mph84%29.85 "Hg10 mi
3:59 PM70 °FLight rain. Mostly cloudy.8 mph81%29.87 "Hg2 mi
2:53 PM81 °FBroken clouds.7 mph62%29.85 "Hg10 mi
1:53 PM80 °FBroken clouds.12 mph62%29.89 "Hg10 mi
12:53 PM81 °FPartly sunny.6 mph58%29.93 "Hg10 mi
11:53 AM80 °FPartly sunny.10 mph56%29.94 "Hg10 mi
10:53 AM80 °FScattered clouds.3 mph58%29.94 "Hg10 mi
9:53 AM80 °FSunny.7 mph58%29.95 "Hg10 mi
8:53 AM76 °FSunny.No wind64%29.98 "Hg10 mi
7:53 AM72 °FSunny.5 mph71%29.99 "Hg10 mi
6:53 AM66 °FSunny.No wind81%29.99 "Hg10 mi
5:53 AM62 °FClear.No wind86%29.98 "Hg10 mi
4:53 AM63 °FClear.No wind87%29.98 "Hg10 mi
3:53 AM64 °FClear.No wind87%29.97 "Hg10 mi
2:53 AM66 °FPassing clouds.No wind81%29.98 "Hg10 mi
1:53 AM67 °FMostly cloudy.No wind79%29.99 "Hg10 mi
12:53 AM66 °FClear.No wind81%29.98 "Hg10 mi
11:53 PM
Thu, Jun 30
69 °FClear.No wind70%29.99 "Hg10 mi
10:53 PM71 °FPassing clouds.No wind66%30.00 "Hg10 mi
9:53 PM68 °FPassing clouds.No wind76%29.99 "Hg10 mi
8:53 PM72 °FSunny.No wind68%29.97 "Hg10 mi
Weather by CustomWeather, © 2016

See weather overviewHow to use our weather pages